Location: Saint-Palais-sur-Mer
(45.6429°N, 1.0859°W)
Time: 08:21:38
(UTC+01:00)

Courier 1B - All Passes

Search period start: 15 February 2026 00:00
Search period end: 25 February 2026 00:00
Orbit: 962 x 1208 km, 28.3° (Epoch: 13 February)

Date Brightness Start Highest point End Pass type
(mag) Time Alt. Az. Time Alt. Az. Time Alt. Az.
15 Feb - 01:22:50 10° SW 01:27:53 19° SSW 01:32:56 10° SSE night (unlit)
15 Feb - 20:46:06 10° S 20:48:12 11° SSE 20:50:20 10° SE visible
15 Feb - 22:35:53 10° SW 22:41:05 20° S 22:46:22 10° SE visible
16 Feb - 00:28:49 10° SW 00:34:09 20° S 00:39:31 10° SE night (unlit)
16 Feb - 02:24:15 10° SW 02:27:05 12° SSW 02:29:55 10° S night (unlit)
16 Feb - 21:42:36 10° SSW 21:47:22 18° SSE 21:52:13 10° SE visible
16 Feb - 23:34:57 10° SW 23:40:24 21° S 23:45:54 10° SE night (unlit)
17 Feb - 01:29:23 10° SW 01:33:25 15° SSW 01:37:26 10° SSE night (unlit)
17 Feb - 20:49:36 10° SSW 20:53:40 15° SSE 20:57:50 10° SE visible
17 Feb - 22:41:17 10° SW 22:46:39 21° S 22:52:08 10° SE visible
18 Feb - 00:35:01 10° SW 00:39:42 17° SSW 00:44:24 10° SSE night (unlit)
18 Feb - 19:57:06 10° S 20:00:03 13° SSE 20:03:03 10° SE visible
18 Feb - 21:47:46 10° SW 21:52:55 20° S 21:58:13 10° SE visible
18 Feb - 23:40:57 10° SW 23:45:58 19° S 23:51:04 10° SSE night (unlit)
19 Feb - 01:38:08 10° SSW 01:38:52 10° SSW 01:39:36 10° SSW night (unlit)
19 Feb - 20:54:26 10° SSW 20:59:13 19° S 21:04:08 10° SE visible
19 Feb - 22:47:04 10° SW 22:52:14 20° S 22:57:32 10° SE visible
20 Feb - 00:42:05 10° SW 00:45:12 13° SSW 00:48:21 10° S night (unlit)
20 Feb - 20:01:20 10° SSW 20:05:33 16° SSE 20:09:54 10° SE visible
20 Feb - 21:53:22 10° SW 21:58:31 20° S 22:03:48 10° SE visible
20 Feb - 23:47:29 10° SW 23:51:31 15° SSW 23:55:36 10° SSE night (unlit)
21 Feb - 19:08:36 10° S 19:11:56 14° SSE 19:15:22 10° SE visible
21 Feb - 20:59:49 10° SW 21:04:48 20° S 21:09:57 10° SE visible
21 Feb - 22:53:18 10° SW 22:57:49 17° SSW 23:02:26 10° SSE visible
22 Feb - 18:16:37 10° S 18:18:22 11° SSE 18:20:07 10° SE daylight
22 Feb - 20:06:27 10° SW 20:11:08 19° S 20:15:58 10° SE visible
22 Feb - 21:59:22 10° SW 22:04:07 18° S 22:08:59 10° SSE visible
22 Feb - 23:55:53 10° SSW 23:57:00 10° SSW 23:58:09 10° SSW night (unlit)
23 Feb - 19:13:16 10° SSW 19:17:30 17° S 19:21:51 10° SE visible
23 Feb - 21:05:38 10° SW 21:10:25 19° S 21:15:22 10° SE visible
23 Feb - 23:00:22 10° SW 23:03:21 13° SSW 23:06:24 10° S visible
24 Feb - 18:20:21 10° SSW 18:23:54 15° SSE 18:27:32 10° SE daylight
24 Feb - 20:12:04 10° SW 20:16:45 19° S 20:21:37 10° SE visible
24 Feb - 22:05:57 10° SW 22:09:42 15° SSW 22:13:31 10° SSE visible
